• In Belarus
  • List of Countries
  • For 7 days
  • Water Temperature
  • Satellite Maps
  • Weather Map
  • Weather Widgets
  • user-avatar
    Login

    Hourly Weather Yagotin

    Today, 19 October, Thursday

    Time Temperature Precipitation Wind Pressure Humidity
    00:00 +12°C° 0 mm 3 mps 751 mmHg 87%
    01:00 +13°C° 0 mm 2 mps 751 mmHg 87%
    02:00 +13°C° 0 mm 2 mps 750 mmHg 88%
    03:00 +13°C° 0 mm 2 mps 750 mmHg 88%
    04:00 +13°C° 0 mm 2 mps 750 mmHg 89%
    05:00 +12°C° 0 mm 2 mps 750 mmHg 90%
    06:00 +13°C° 0 mm 1 mps 751 mmHg 88%
    07:00 +13°C° 0 mm 1 mps 751 mmHg 87%
    08:00 +14°C° 0 mm 1 mps 751 mmHg 85%
    09:00 +15°C° 0 mm 1 mps 751 mmHg 80%
    10:00 +16°C° 0 mm 1 mps 751 mmHg 75%
    11:00 +19°C° 0 mm 1 mps 751 mmHg 69%
    12:00 +17°C° 0 mm 0 mps 751 mmHg 68%
    13:00 +18°C° 0 mm 0 mps 751 mmHg 66%
    14:00 +18°C° 0 mm 0 mps 751 mmHg 64%
    15:00 +17°C° 0 mm 0 mps 751 mmHg 68%
    16:00 +18°C° 0 mm 1 mps 751 mmHg 72%
    17:00 +16°C° 0 mm 1 mps 751 mmHg 76%
    18:00 +16°C° 0 mm 1 mps 751 mmHg 78%
    19:00 +15°C° 0 mm 2 mps 751 mmHg 80%
    20:00 +14°C° 0 mm 2 mps 751 mmHg 82%
    21:00 +14°C° 0 mm 2 mps 751 mmHg 83%
    22:00 +13°C° 0 mm 2 mps 751 mmHg 84%
    23:00 +12°C° 0 mm 3 mps 751 mmHg 85%

    Tomorrow, 20 October, Friday

    Time Temperature Precipitation Wind Pressure Humidity
    00:00 +12°C° 0 mm 3 mps 751 mmHg 86%
    01:00 +11°C° 0 mm 3 mps 751 mmHg 87%
    02:00 +11°C° 0 mm 3 mps 751 mmHg 88%
    03:00 +10°C° 0 mm 3 mps 751 mmHg 88%
    04:00 +10°C° 0 mm 3 mps 751 mmHg 89%
    05:00 +10°C° 0 mm 3 mps 751 mmHg 90%
    06:00 +10°C° 0 mm 3 mps 752 mmHg 87%
    07:00 +10°C° 0 mm 4 mps 752 mmHg 84%
    08:00 +10°C° 0 mm 4 mps 752 mmHg 82%
    09:00 +12°C° 0 mm 4 mps 752 mmHg 76%
    10:00 +13°C° 0 mm 4 mps 752 mmHg 71%
    11:00 +14°C° 0 mm 4 mps 753 mmHg 66%
    12:00 +15°C° 0 mm 4 mps 753 mmHg 64%
    13:00 +15°C° 0 mm 4 mps 753 mmHg 62%
    14:00 +15°C° 0 mm 4 mps 753 mmHg 60%
    15:00 +14°C° 0 mm 4 mps 753 mmHg 63%
    16:00 +13°C° 0 mm 3 mps 753 mmHg 66%
    17:00 +12°C° 0 mm 3 mps 753 mmHg 68%
    18:00 +11°C° 0 mm 3 mps 753 mmHg 68%
    19:00 +10°C° 0 mm 3 mps 753 mmHg 68%
    20:00 +10°C° 0 mm 3 mps 754 mmHg 67%
    21:00 +9°C° 0 mm 3 mps 754 mmHg 68%
    22:00 +8°C° 0 mm 3 mps 754 mmHg 68%
    23:00 +8°C° 0 mm 3 mps 754 mmHg 69%

    Day after tomorrow, 21 October, Saturday

    Time Temperature Precipitation Wind Pressure Humidity
    00:00 +7°C° 0 mm 2 mps 754 mmHg 70%
    01:00 +7°C° 0 mm 2 mps 754 mmHg 71%
    02:00 +7°C° 0 mm 2 mps 754 mmHg 72%
    03:00 +6°C° 0 mm 2 mps 754 mmHg 74%
    04:00 +6°C° 0 mm 2 mps 754 mmHg 75%
    05:00 +5°C° 0 mm 2 mps 754 mmHg 76%
    06:00 +6°C° 0 mm 2 mps 754 mmHg 75%
    07:00 +5°C° 0 mm 3 mps 755 mmHg 73%
    08:00 +5°C° 0 mm 3 mps 755 mmHg 71%
    09:00 +7°C° 0 mm 3 mps 755 mmHg 65%
    10:00 +9°C° 0 mm 3 mps 755 mmHg 59%
    11:00 +10°C° 0 mm 2 mps 755 mmHg 52%
    12:00 +12°C° 0 mm 2 mps 754 mmHg 49%
    13:00 +12°C° 0 mm 2 mps 754 mmHg 46%
    14:00 +13°C° 0 mm 2 mps 754 mmHg 43%
    15:00 +12°C° 0 mm 2 mps 754 mmHg 45%
    16:00 +10°C° 0 mm 2 mps 754 mmHg 48%
    17:00 +9°C° 0 mm 2 mps 754 mmHg 50%
    18:00 +9°C° 0 mm 2 mps 754 mmHg 52%
    19:00 +9°C° 0 mm 2 mps 754 mmHg 53%
    20:00 +8°C° 0 mm 2 mps 754 mmHg 54%
    21:00 +8°C° 0 mm 2 mps 754 mmHg 56%
    22:00 +8°C° 0 mm 2 mps 754 mmHg 58%
    23:00 +8°C° 0 mm 3 mps 754 mmHg 59%

    22 October, Sunday

    Time Temperature Precipitation Wind Pressure Humidity
    00:00 +7°C° 0 mm 2 mps 754 mmHg 60%
    01:00 +7°C° 0 mm 2 mps 754 mmHg 61%
    02:00 +7°C° 0 mm 2 mps 754 mmHg 61%
    03:00 +6°C° 0 mm 2 mps 754 mmHg 63%
    04:00 +6°C° 0 mm 2 mps 754 mmHg 64%
    05:00 +6°C° 0 mm 2 mps 753 mmHg 65%
    06:00 +6°C° 0 mm 2 mps 754 mmHg 64%
    07:00 +5°C° 0 mm 3 mps 754 mmHg 63%
    08:00 +5°C° 0 mm 3 mps 754 mmHg 62%
    09:00 +7°C° 0 mm 3 mps 754 mmHg 60%
    10:00 +8°C° 0 mm 3 mps 754 mmHg 57%
    11:00 +9°C° 0 mm 3 mps 754 mmHg 54%
    12:00 +9°C° 0 mm 3 mps 754 mmHg 52%
    13:00 +9°C° 0 mm 3 mps 754 mmHg 51%
    14:00 +10°C° 0 mm 3 mps 753 mmHg 49%
    15:00 +9°C° 0 mm 2 mps 753 mmHg 51%
    16:00 +9°C° 0 mm 2 mps 753 mmHg 53%
    17:00 +8°C° 0 mm 2 mps 753 mmHg 55%
    18:00 +8°C° 0 mm 2 mps 753 mmHg 55%
    19:00 +7°C° 0 mm 3 mps 754 mmHg 56%
    20:00 +7°C° 0 mm 3 mps 754 mmHg 57%
    21:00 +7°C° 0 mm 3 mps 754 mmHg 55%
    22:00 +7°C° 0 mm 3 mps 754 mmHg 54%
    23:00 +7°C° 0 mm 3 mps 754 mmHg 52%

    23 October, Monday

    Time Temperature Precipitation Wind Pressure Humidity
    00:00 +7°C° 0 mm 3 mps 754 mmHg 52%
    01:00 +7°C° 0 mm 3 mps 754 mmHg 52%
    02:00 +7°C° 0 mm 3 mps 754 mmHg 51%
    03:00 +7°C° 0 mm 3 mps 754 mmHg 51%
    04:00 +6°C° 0 mm 4 mps 754 mmHg 51%
    05:00 +6°C° 0 mm 4 mps 753 mmHg 51%
    06:00 +6°C° 0 mm 4 mps 754 mmHg 52%
    07:00 +6°C° 0 mm 4 mps 754 mmHg 52%
    08:00 +6°C° 0 mm 4 mps 754 mmHg 52%
    09:00 +6°C° 0 mm 4 mps 754 mmHg 52%
    10:00 +7°C° 0 mm 4 mps 754 mmHg 52%
    11:00 +7°C° 0 mm 4 mps 754 mmHg 51%
    12:00 +7°C° 0 mm 4 mps 754 mmHg 52%
    13:00 +7°C° 0 mm 4 mps 754 mmHg 52%
    14:00 +8°C° 0 mm 4 mps 754 mmHg 53%
    15:00 +7°C° 0 mm 4 mps 755 mmHg 54%
    16:00 +8°C° 0 mm 3 mps 755 mmHg 55%
    17:00 +8°C° 0 mm 3 mps 755 mmHg 56%
    18:00 +8°C° 0 mm 3 mps 755 mmHg 55%
    19:00 +8°C° 0 mm 3 mps 756 mmHg 55%
    20:00 +7°C° 0 mm 4 mps 756 mmHg 54%
    21:00 +7°C° 0 mm 4 mps 756 mmHg 54%
    22:00 +7°C° 0 mm 4 mps 757 mmHg 54%
    23:00 +7°C° 0 mm 4 mps 757 mmHg 54%

    24 October, Tuesday

    Time Temperature Precipitation Wind Pressure Humidity
    00:00 +6°C° 0 mm 4 mps 757 mmHg 53%
    01:00 +6°C° 0 mm 4 mps 758 mmHg 53%
    02:00 +6°C° 0 mm 4 mps 758 mmHg 53%
    03:00 +6°C° 0 mm 4 mps 758 mmHg 53%
    04:00 +6°C° 0 mm 4 mps 759 mmHg 53%
    05:00 +6°C° 0 mm 4 mps 759 mmHg 53%
    06:00 +5°C° 0 mm 4 mps 759 mmHg 52%
    07:00 +5°C° 0 mm 4 mps 760 mmHg 52%
    08:00 +5°C° 0 mm 4 mps 760 mmHg 52%
    09:00 +6°C° 0 mm 4 mps 760 mmHg 49%
    10:00 +6°C° 0 mm 4 mps 761 mmHg 47%
    11:00 +7°C° 0 mm 4 mps 761 mmHg 44%
    12:00 +8°C° 0 mm 4 mps 761 mmHg 42%
    13:00 +8°C° 0 mm 4 mps 761 mmHg 41%
    14:00 +10°C° 0 mm 4 mps 762 mmHg 39%
    15:00 +9°C° 0 mm 3 mps 762 mmHg 42%
    16:00 +8°C° 0 mm 3 mps 762 mmHg 44%
    17:00 +5°C° 0 mm 3 mps 762 mmHg 47%
    18:00 +5°C° 0 mm 3 mps 763 mmHg 48%
    19:00 +4°C° 0 mm 3 mps 763 mmHg 49%
    20:00 +3°C° 0 mm 4 mps 763 mmHg 50%
    21:00 +3°C° 0 mm 3 mps 764 mmHg 51%
    22:00 +2°C° 0 mm 3 mps 764 mmHg 53%
    23:00 +2°C° 0 mm 3 mps 765 mmHg 54%
    Show more